This is the latest recevied weather packets stored in our database for station/object KD9WYV. If no packets are shown the sender has not sent any weather packets the latest 1 day(s).
| Time | Temp. | Humidity | Pressure | Rain* | Wind** | Luminosity | Snow |
|---|---|---|---|---|---|---|---|
| 1778049649 | 6.67° C | 93% | 1010.6 hPa | 0 mm | - | 0 W/m² | - |
| 1778048742 | 7.22° C | 94% | 1009.8 hPa | 1.78 mm | - | 0 W/m² | - |
| 1778048135 | 7.22° C | 95% | 1009.8 hPa | 0 mm | - | 0 W/m² | - |
| 1778047833 | 7.22° C | 95% | 1010.1 hPa | 0 mm | - | 0 W/m² | - |
| 1778046622 | 7.22° C | 95% | 1010.5 hPa | 0 mm | - | 0 W/m² | - |
| 1778046319 | 7.22° C | 95% | 1010.6 hPa | 0 mm | - | 0 W/m² | - |
| 1778045713 | 7.78° C | 95% | 1010.9 hPa | 0 mm | - | 0 W/m² | - |
| 1778045411 | 7.22° C | 95% | 1011 hPa | 1.27 mm | - | 0 W/m² | - |
| 1778044200 | 7.78° C | 96% | 1010.6 hPa | 1.27 mm | - | 0 W/m² | - |
| 1778043898 | 7.78° C | 96% | 1011.3 hPa | 1.27 mm | - | 0 W/m² | - |
| 1778043595 | 7.78° C | 96% | 1011.5 hPa | 0 mm | - | 0 W/m² | - |
| 1778042988 | 7.78° C | 96% | 1011 hPa | 1.78 mm | - | 0 W/m² | - |
| 1778042383 | 7.78° C | 96% | 1010.3 hPa | 0 mm | - | 0 W/m² | - |
| 1778042080 | 7.78° C | 96% | 1010.3 hPa | 1.27 mm | - | 0 W/m² | - |
| 1778041778 | 7.78° C | 96% | 1010.6 hPa | 1.27 mm | - | 0 W/m² | - |
| 1778041477 | 7.78° C | 96% | 1010.2 hPa | 1.27 mm | - | 0 W/m² | - |
| 1778041175 | 7.78° C | 96% | 1009.9 hPa | 0 mm | - | 0 W/m² | - |
| 1778040267 | 7.78° C | 96% | 1010.1 hPa | 1.78 mm | - | 0 W/m² | - |
| 1778039660 | 7.78° C | 96% | 1010.1 hPa | 0 mm | - | 0 W/m² | - |
| 1778039357 | 7.78° C | 96% | 1010.1 hPa | 1.27 mm | - | 0 W/m² | - |
| 1778039054 | 7.78° C | 96% | 1010.2 hPa | 4.83 mm | - | 0 W/m² | - |
| 1778038751 | 7.78° C | 96% | 1010.6 hPa | 6.6 mm | - | 0 W/m² | - |
| 1778038145 | 7.78° C | 97% | 1010.8 hPa | 6.1 mm | - | 0 W/m² | - |
| 1778037539 | 7.78° C | 97% | 1010.9 hPa | 1.78 mm | - | 0 W/m² | - |
| 1778037236 | 8.33° C | 97% | 1010.2 hPa | 0 mm | - | 0 W/m² | - |
* Rain latest hour (hover to see other rain measurements)
** Current wind speed in m/s (hover to see current wind gust speed)